THORAD DELTA 1 DEB, 8296

Orbit data source: Space-Track

THORAD DELTA 1 DEB, 8296 is space debris in SSO originally from a launch on Fri, 15 Nov 1974 UTC launched from the Air Force Western Test Range (AFWTR). Debris objects in space refer to the collection of defunct objects orbiting the Earth. Examples of debris include non-operational satellites, rocket bodies, and fragments generated from explosions, collisions, or faulty payload assembly.

Loading next visibility...
Identifier
8296, 1974-089BD
Orbit
SSO
Country
Flag of USUS
Related business
Manufacturer
Unknown
Mission
Spacecraft
Bus & Motor
Unknown
Mass
Unknown
Launch date (UTC)
1974-11-15 (52 years ago)
Launch vehicle
Unknown
Launch site
Air Force Western Test Range (AFWTR)
Object type
Payload
Rocket body
Debris
Shape & HBR
Unknown shape, 0.1 m
Radar Cross Section
Medium (>0.1 m² and <1 m²)

Expand to show TLE details & history
Last TLE update: 2 days ago

TLE from 2 days ago
0 THORAD DELTA 1 DEB
1 08296U 74089BD  26177.01098227  .00000253  00000-0  22530-2 0  9999
2 08296 102.5524   1.0116 0220037 162.4902 350.0726 12.33388435349541
Epoch: 2026-06-26T00:15Z
TLE epoch observation values (Epoch: 2026-06-26T00:15:48.868Z)
Latitude
27.20144°
Longitude
-90.54947°
Altitude
1,366.322 km
Speed
7.255 km/s
True Right ascension
12h 30m 11s
True Declination
27° 04' 22"
Sunlit
Object was in daylight at epoch
Visualization orbit readout
Latitude
Unknown
Longitude
Unknown
Altitude
Unknown
Speed
Unknown
Apparent Right ascension
Unknown
Apparent Declination
Unknown
Sunlit
N/A
Visualization observer readout
Local Sidereal Time
08:46:40
Azimuth
Unknown
Elevation
Unknown
Doppler factor
Unknown
Orbital elements
Apogee altitude
1,706.431 km
Perigee altitude
1,358.31 km
Semi-major axis
7,910.507 km
Eccentricity
0.022
Inclination
102.5524°
RAAN
1.0116°
Arg. of periapsis
162.4902°
True anomaly
349.62582°
Mean anomaly
350.0726°
Eccentric anomaly
349.85044°
Mean motion
3.08487 °/min
Orbital period
116.7 mins
BSTAR
0.002253
Loading maneuver chart data...
Computing Atmospheric mass density...

Documentation

Showing up to 5 results
|